[[{"header":{"parameterUnit":"m.s-1","parameterCategory":1,"la1":30.2991,"la2":30.254,"lo1":-89.0895,"lo2":-89.0444,"dy":0.0017,"dx":0.0017,"nx":28,"ny":28,"refTime":"2025-03-16T03:00:00:Z","depth":0,"parameterNumber":2,"parameterNumberName":"U-component_of_WINDS"},"data":[0,0,0,0,0,0,0,0,0,0,0,0,0,0,0,0,0,0,0,0,0,0,0,0,0,0,0,0,0,0,0,0,0,0,0,0,0,0,0,0,0,0,0,0,0,0,0,0,0,0,0,0,0,0,0,0,0,0,5.4769,5.4769,0,5.484,5.4841,5.4841,5.476,5.4757,5.4754,5.4751,5.4825,5.483,5.4834,0,0,0,0,0,0,0,0,0,0,0,0,0,5.4566,5.457,5.4769,5.477,5.477,5.484,5.4841,5.4842,5.4761,5.4757,5.4753,5.475,5.4823,5.4829,5.4835,0,0,0,0,0,0,0,0,0,0,0,0,0,5.4647,5.4572,5.4768,5.4739,5.4737,5.4839,5.4841,5.4842,5.4762,5.4757,5.4752,5.4748,5.4822,5.4829,5.4836,5.4972,0,0,5.4858,5.4861,0,0,0,0,0,0,0,0,5.4643,5.4655,5.4742,5.4741,5.4739,5.4786,5.4796,5.4885,5.4763,5.4752,5.4751,5.4746,5.4816,5.4823,5.4847,5.4975,5.4978,5.4858,5.4863,5.4866,5.4868,0,0,0,0,0,0,0,5.4637,5.4651,5.4797,5.4743,5.4741,5.4722,5.4729,5.4813,5.4809,5.4753,5.4747,5.4756,5.4814,5.484,5.4848,5.4979,5.4858,5.4865,5.4869,5.4872,5.5226,5.5231,0,0,0,0,0,0,5.4635,5.4647,5.4794,5.4799,5.4678,5.473,5.4737,5.4776,5.4808,5.4808,5.476,5.4752,5.483,5.484,5.485,5.5013,5.4866,5.4873,5.4877,5.5221,5.5227,5.5233,0,0,0,0,0,0,5.4631,5.4649,5.4792,5.4722,5.4738,5.4738,5.4782,5.478,5.4805,5.4813,5.4813,5.4787,5.4827,5.484,5.4943,5.5015,5.4876,5.4882,5.5215,5.5223,5.523,5.534,0,0,0,0,0,0,5.4625,5.4648,5.4699,5.4723,5.4742,5.4882,5.4787,5.4784,5.4818,5.4808,5.4838,5.4839,5.4824,5.4932,5.495,5.5022,5.4888,5.5209,5.5219,5.5228,5.533,5.535,5.5368,0,0,0,0,0,5.4618,5.4726,5.4701,5.472,5.4806,5.4887,5.4898,5.4878,5.4824,5.4876,5.4882,5.4838,5.5004,5.4944,5.4963,5.5038,5.5204,5.5216,5.5227,5.5321,5.5346,5.5367,0,0,0,0,0,0,5.4709,5.4729,5.4702,5.482,5.4853,5.4873,5.4937,5.4905,5.4953,5.4942,5.4916,5.4923,5.5033,5.5046,5.4978,5.5173,5.5095,5.5111,5.516,5.5184,5.5203,5.5198,5.4894,0,0,0,0,0,5.4743,5.4807,5.482,5.4924,5.4942,5.4937,5.4972,5.4954,5.4986,5.4999,5.5012,5.5046,5.5106,5.5146,5.5201,5.5331,5.5338,5.5393,5.5412,5.5427,5.5441,5.5514,5.5539,5.5271,5.527,5.527,0,0,5.4814,5.4832,5.4874,5.4943,5.4966,5.5033,5.4949,5.5023,5.5073,5.5011,5.5109,5.512,5.5156,5.5274,5.5326,5.5288,5.5517,5.5442,5.5454,5.546,5.5528,5.5553,5.5576,5.5278,5.5277,5.5276,0,0,5.4977,5.4997,5.5086,5.5112,5.5148,5.5144,5.5166,5.5192,5.5197,5.5296,5.5251,5.5311,5.5414,5.5442,5.547,5.5648,5.561,5.5666,5.5765,5.5836,5.5857,5.5876,5.5941,5.5964,5.568,5.5681,5.5681,0,5.506,5.5159,5.5137,5.5215,5.5248,5.5195,5.5286,5.5312,5.5365,5.5389,5.5345,5.5475,5.5495,5.562,5.5664,5.5688,5.5713,5.5662,5.5856,5.5874,5.5892,5.5953,5.5977,5.5687,5.5686,5.5686,5.5685,0,5.5261,5.5331,5.5399,5.5451,5.5492,5.5576,5.5568,5.5612,5.5592,5.5594,5.5696,5.5719,5.5779,5.5807,5.5788,5.5931,5.5906,5.586,5.5781,5.5924,5.5982,5.6005,5.5697,5.5694,5.5692,5.5691,0,0,5.5481,5.5522,5.5548,5.5572,5.5609,5.5663,5.5747,5.5806,5.5845,5.5884,5.5954,5.6044,5.6003,5.6034,5.6018,5.608,5.6222,5.6027,5.6027,5.6063,5.6383,5.6417,5.6445,5.6198,5.6202,5.6206,5.638,0,5.5646,5.5789,5.5773,5.5911,5.5976,5.5929,5.6002,5.6033,5.6038,5.6095,5.6101,5.6166,5.6105,5.6124,5.6184,5.6192,5.6286,5.6179,5.6264,5.6267,5.6256,5.6475,5.6511,5.6674,5.6402,5.6406,5.6409,0,5.5856,5.5904,5.6048,5.6078,5.6105,5.6171,5.6225,5.628,5.6316,5.6315,5.6353,5.6326,5.6412,5.6332,5.6451,5.6379,5.6413,5.6423,5.6428,5.6435,5.6346,5.6488,5.6726,5.6751,5.6444,5.6441,5.6438,0,5.6004,5.6104,5.6204,5.6226,5.6263,5.6311,5.6329,5.636,5.6398,5.6446,5.647,5.6528,5.6559,5.6605,5.6596,5.6539,5.6718,5.6637,5.6721,5.6721,5.676,5.6758,5.7007,5.6782,5.6781,5.6781,5.678,0,5.619,5.628,5.6271,5.6333,5.6434,5.6415,5.6516,5.6528,5.6557,5.6621,5.6584,5.6645,5.6629,5.669,5.6683,5.6784,5.6798,5.6801,5.6798,5.6804,5.6804,5.6826,5.6815,5.6787,5.6786,5.6785,5.6784,0,5.6371,5.6369,5.6475,5.6502,5.6511,5.6584,5.6608,5.6667,5.667,5.6752,5.677,5.6775,5.6845,5.6841,5.692,5.6916,5.704,5.7023,5.7028,5.7024,5.7109,5.7101,5.7381,5.7417,5.7168,5.7171,5.7173,0,5.649,5.6559,5.6594,5.6634,5.6655,5.6721,5.6759,5.6745,5.6787,5.6835,5.6888,5.6955,5.7008,5.7123,5.7134,5.7196,5.7181,5.7275,5.719,5.7195,5.7184,5.718,5.7187,5.7291,5.7294,5.7296,5.7298,0,5.6701,5.6697,5.6754,5.6812,5.6859,5.6904,5.6944,5.698,5.697,5.7019,5.7091,5.7132,5.7214,5.7282,5.7341,5.736,5.7329,5.7325,5.7348,5.7355,5.7355,5.7357,5.7074,5.7319,5.7317,5.7315,5.7314,5.7313,5.6855,5.6915,5.695,5.7015,5.7045,5.7085,5.7142,5.7153,5.7212,5.7278,5.7266,5.7347,5.7384,5.746,5.7485,5.755,5.7516,5.7549,5.7557,5.7566,5.7576,5.7345,5.756,5.756,5.7559,5.7559,5.7558,0,5.7066,5.7086,5.7147,5.7206,5.7258,5.7224,5.7268,5.7314,5.7386,5.7423,5.7476,5.756,5.7627,5.7644,5.7708,5.7757,5.7744,5.7774,5.777,5.7776,5.7601,5.7576,5.7783,5.7783,5.7783,5.7783,5.7783,5.7783,5.7181,5.7281,5.7282,5.7397,5.7417,5.7496,5.7525,5.7562,5.7592,5.7687,5.7742,5.7753,5.7783,5.785,5.791,5.7914,5.7939,5.7976,5.7974,5.781,5.7788,5.7766,5.7742,5.7981,5.7981,5.8143,5.8144,5.8145]},{"header":{"parameterUnit":"m.s-1","parameterCategory":1,"la1":30.2991,"la2":30.254,"lo1":-89.0895,"lo2":-89.0444,"dy":0.0017,"dx":0.0017,"nx":28,"ny":28,"refTime":"2025-03-16T03:00:00:Z","depth":0,"parameterNumber":3,"parameterNumberName":"V-component_of_WINDS"},"data":[0,0,0,0,0,0,0,0,0,0,0,0,0,0,0,0,0,0,0,0,0,0,0,0,0,0,0,0,0,0,0,0,0,0,0,0,0,0,0,0,0,0,0,0,0,0,0,0,0,0,0,0,0,0,0,0,0,0,-4.8692,-4.8693,0,-4.8812,-4.8813,-4.8814,-4.8805,-4.8803,-4.8801,-4.8799,-4.8921,-4.8926,-4.8931,0,0,0,0,0,0,0,0,0,0,0,0,0,-4.8455,-4.8459,-4.8692,-4.8693,-4.8695,-4.8811,-4.8813,-4.8815,-4.8805,-4.8803,-4.8801,-4.8799,-4.8919,-4.8925,-4.8931,0,0,0,0,0,0,0,0,0,0,0,0,0,-4.8564,-4.846,-4.8691,-4.8704,-4.8706,-4.8811,-4.8813,-4.8815,-4.8806,-4.8803,-4.88,-4.8798,-4.8917,-4.8925,-4.8932,-4.9031,0,0,-4.8954,-4.8957,0,0,0,0,0,0,0,0,-4.8558,-4.8573,-4.8701,-4.8703,-4.8706,-4.879,-4.8774,-4.8887,-4.8806,-4.8768,-4.8799,-4.8796,-4.888,-4.889,-4.8918,-4.9037,-4.9042,-4.8955,-4.8959,-4.8963,-4.8965,0,0,0,0,0,0,0,-4.855,-4.8568,-4.8739,-4.8702,-4.8706,-4.8704,-4.8716,-4.8795,-4.8837,-4.8771,-4.8771,-4.8785,-4.8881,-4.8911,-4.8921,-4.9044,-4.8955,-4.8961,-4.8966,-4.8969,-4.9252,-4.9255,0,0,0,0,0,0,-4.854,-4.8561,-4.8735,-4.8743,-4.8624,-4.871,-4.8724,-4.8766,-4.8836,-4.8845,-4.8787,-4.8784,-4.89,-4.8912,-4.8925,-4.9047,-4.8963,-4.8969,-4.8974,-4.9249,-4.9253,-4.9256,0,0,0,0,0,0,-4.8535,-4.8556,-4.873,-4.8652,-4.8674,-4.8717,-4.8764,-4.877,-4.88,-4.8849,-4.8856,-4.8811,-4.8898,-4.8915,-4.9005,-4.9051,-4.8973,-4.8979,-4.9245,-4.925,-4.9254,-4.9291,0,0,0,0,0,0,-4.8528,-4.8554,-4.8592,-4.8653,-4.8678,-4.8809,-4.8767,-4.8774,-4.8813,-4.881,-4.8873,-4.8881,-4.8897,-4.8995,-4.9013,-4.906,-4.8985,-4.9241,-4.9247,-4.9253,-4.9286,-4.9297,-4.9305,0,0,0,0,0,-4.852,-4.8597,-4.8594,-4.8615,-4.8727,-4.8811,-4.8826,-4.8844,-4.8817,-4.8856,-4.8887,-4.8879,-4.9044,-4.9004,-4.9024,-4.9074,-4.9238,-4.9246,-4.9252,-4.9282,-4.9294,-4.9305,0,0,0,0,0,0,-4.8539,-4.8605,-4.8602,-4.8701,-4.8751,-4.8809,-4.8859,-4.8857,-4.8914,-4.8909,-4.8929,-4.8943,-4.9035,-4.9064,-4.9018,-4.9175,-4.9137,-4.9149,-4.9153,-4.9165,-4.9175,-4.9165,-4.8991,0,0,0,0,0,-4.8555,-4.8618,-4.8672,-4.8755,-4.878,-4.8815,-4.8852,-4.8863,-4.8914,-4.8935,-4.8973,-4.9023,-4.9086,-4.9127,-4.9188,-4.9291,-4.9304,-4.9335,-4.9345,-4.9353,-4.9362,-4.942,-4.9434,-4.9279,-4.9279,-4.9279,0,0,-4.8588,-4.8632,-4.867,-4.876,-4.8799,-4.8864,-4.8833,-4.8902,-4.8951,-4.8945,-4.9033,-4.9063,-4.9121,-4.9218,-4.9263,-4.9245,-4.9408,-4.9362,-4.9368,-4.9373,-4.9428,-4.9443,-4.9456,-4.9284,-4.9283,-4.9282,0,0,-4.8682,-4.8721,-4.8795,-4.8835,-4.8896,-4.8919,-4.8937,-4.8997,-4.9017,-4.9106,-4.9103,-4.9161,-4.927,-4.9311,-4.9346,-4.9459,-4.9453,-4.9478,-4.9528,-4.9584,-4.9596,-4.9607,-4.9648,-4.9662,-4.9487,-4.9487,-4.9488,0,-4.8715,-4.8813,-4.8832,-4.8904,-4.8943,-4.8943,-4.9017,-4.9056,-4.9133,-4.916,-4.914,-4.9277,-4.9316,-4.9423,-4.9451,-4.9479,-4.95,-4.947,-4.9593,-4.9604,-4.9615,-4.9653,-4.9668,-4.949,-4.949,-4.949,-4.9489,0,-4.8852,-4.892,-4.8972,-4.9048,-4.9093,-4.9166,-4.9196,-4.924,-4.9247,-4.9273,-4.9364,-4.9411,-4.9482,-4.9508,-4.9515,-4.9617,-4.9605,-4.9589,-4.9551,-4.9632,-4.9668,-4.9683,-4.9494,-4.9493,-4.9492,-4.9491,0,0,-4.8959,-4.9046,-4.9065,-4.91,-4.9167,-4.9221,-4.9294,-4.9364,-4.9401,-4.9455,-4.9517,-4.961,-4.9596,-4.9637,-4.9648,-4.9697,-4.9784,-4.9675,-4.9677,-4.9694,-4.99,-4.9912,-4.9929,-4.9781,-4.9784,-4.9787,-4.9896,0,-4.9059,-4.9189,-4.9209,-4.9323,-4.9387,-4.9389,-4.9452,-4.9501,-4.9528,-4.9586,-4.9615,-4.9681,-4.9657,-4.9682,-4.9731,-4.9763,-4.9826,-4.9756,-4.9839,-4.9842,-4.9824,-4.9948,-4.996,-5.006,-4.991,-4.9912,-4.9914,0,-4.9193,-4.9252,-4.9372,-4.9433,-4.9461,-4.9518,-4.9585,-4.964,-4.9696,-4.9712,-4.9758,-4.9765,-4.9841,-4.9801,-4.9907,-4.9859,-4.9895,-4.9916,-4.992,-4.9928,-4.9882,-4.9959,-5.0093,-5.0108,-4.9937,-4.9935,-4.9934,0,-4.926,-4.9369,-4.9455,-4.9485,-4.9558,-4.9598,-4.9631,-4.9684,-4.9725,-4.9784,-4.9811,-4.9878,-4.9914,-4.9966,-4.999,-4.9959,-5.0095,-5.0057,-5.011,-5.011,-5.0138,-5.0136,-5.0279,-5.0162,-5.0162,-5.0161,-5.0161,0,-4.9369,-4.9443,-4.9486,-4.9539,-4.9623,-4.9646,-4.9728,-4.9759,-4.9807,-4.9866,-4.9872,-4.9928,-4.9957,-5.0017,-5.0037,-5.0122,-5.0138,-5.0154,-5.0158,-5.0153,-5.0151,-5.0176,-5.0169,-5.0165,-5.0164,-5.0164,-5.0163,0,-4.9457,-4.9489,-4.9583,-4.9645,-4.9663,-4.9721,-4.9775,-4.9827,-4.9854,-4.9929,-4.9948,-4.9991,-5.0063,-5.0093,-5.018,-5.0194,-5.0291,-5.029,-5.0272,-5.0274,-5.0326,-5.032,-5.049,-5.0514,-5.0381,-5.0382,-5.0383,0,-4.9524,-4.9581,-4.965,-4.9691,-4.9725,-4.979,-4.9833,-4.9859,-4.9903,-4.9972,-5.0016,-5.0088,-5.0147,-5.0261,-5.03,-5.0367,-5.0368,-5.0423,-5.0378,-5.0372,-5.0369,-5.0365,-5.0371,-5.0431,-5.0432,-5.0433,-5.0434,0,-4.9641,-4.9654,-4.9716,-4.9784,-4.9835,-4.989,-4.9943,-4.9976,-5.0011,-5.006,-5.0134,-5.018,-5.027,-5.0342,-5.0412,-5.0445,-5.0446,-5.0448,-5.0464,-5.0459,-5.0447,-5.0454,-5.0295,-5.0444,-5.0443,-5.0442,-5.0441,-5.0441,-4.9721,-4.9772,-4.9829,-4.9898,-4.9941,-4.9991,-5.0043,-5.0078,-5.014,-5.0216,-5.0228,-5.0307,-5.0363,-5.0457,-5.0494,-5.0556,-5.0542,-5.0565,-5.0571,-5.0576,-5.058,-5.0437,-5.0569,-5.0569,-5.0569,-5.0568,-5.0568,0,-4.9837,-4.9875,-4.9938,-5.0013,-5.0068,-5.0065,-5.0124,-5.017,-5.0239,-5.0292,-5.035,-5.0436,-5.0506,-5.0551,-5.0622,-5.0663,-5.0665,-5.0681,-5.0677,-5.0685,-5.0588,-5.0567,-5.0678,-5.0678,-5.0678,-5.0678,-5.0678,-5.0678,-4.9905,-4.9991,-5.0012,-5.0121,-5.0158,-5.0235,-5.027,-5.0316,-5.0359,-5.0454,-5.0513,-5.0542,-5.0592,-5.0667,-5.0731,-5.0743,-5.0768,-5.0785,-5.0795,-5.0703,-5.0692,-5.0681,-5.0662,-5.079,-5.079,-5.0888,-5.0889,-5.0889]}]]